Regional Weather Roundup
Issued by NWS

Home | Current Version | Previous Version | Graphics & Text | Print | Product List | Glossary On
Versions: 1 2 3 4 5 6 7 8 9 10 11 12 13 14 15 16 17 18 19 20 21 22 23 24 25 26 27 28 29 30 31 32 33 34 35 36 37 38 39 40 41 42 43 44 45 46 47 48 49 50
000
ASUS45 KBOU 200310
RWRCO

WEATHER ROUNDUP FOR COLORADO
NATIONAL WEATHER SERVICE PUEBLO CO
900 PM MDT THU APR 19 2018

NOTE: "FAIR" INDICATES FEW OR NO CLOUDS BELOW 12000 FEET WITH NO
SIGNIFICANT WEATHER AND/OR OBSTRUCTIONS TO VISIBILITY.

COZ001>005-013-030-031-200400-
...NORTHWEST COLORADO...

CITY           SKY/WX    TMP DP  RH WIND       PRES   REMARKS
CRAIG          CLOUDY    58  23  26 MISG      29.82R
HAYDEN         CLOUDY    55  21  26 NE5       29.85R
MEEKER         CLOUDY    57  27  31 SW12G20   29.86R
RABBIT EARS PA NOT AVBL
STEAMBOAT SPGS MOCLDY    56  16  20 E30G38    29.85S
WALDEN         MOCLDY    43  12  28 SE14      29.98R
$$

COZ006>008-011-200400-
...WEST CENTRAL VALLEYS...

CITY           SKY/WX    TMP DP  RH WIND       PRES   REMARKS
GRAND JUNCTION CLOUDY    65  27  23 E12       29.69F
MONTROSE       CLOUDY    60  25  26 E23G37    29.79F
EAGLE          CLOUDY    59  22  24 SE18G29   29.88R
RIFLE          CLOUDY    63  25  23 S14G24    29.81R
DELTA          NOT AVBL
NUCLA          FAIR      64   5   9 S10       29.74F
$$

COZ017>023-064>068-200400-
...SOUTHWEST COLORADO...

CITY           SKY/WX    TMP DP  RH WIND       PRES   REMARKS
DURANGO        CLOUDY    60  20  21 SE24G44   29.85S
CORTEZ         CLOUDY    66   2   8 S17       29.73F
PAGOSA SPRINGS CLOUDY    54  15  22 SE16G25   29.98R
TELLURIDE      CLOUDY    51  17  26 SE17G49   29.93S
WOLF CREEK PAS CLOUDY    32  18  55 S24G37    30.16S WCI  19
$$

COZ009-010-012-014-032>034-037-058>063-200400-
...CENTRAL COLORADO...

CITY           SKY/WX    TMP DP  RH WIND       PRES   REMARKS
ASPEN          CLOUDY    56  16  20 SE17      29.91R
BUENA VISTA    CLOUDY    49  13  24 CALM      30.01S
COPPER MTN     NOT AVBL
BERTHOUD PASS  FAIR      25  14  63 SE28G40   30.17R WCI   8
COTTONWOOD PAS CLOUDY    46  14  27 CALM      30.08S
GUNNISON       CLOUDY    51  24  34 SW10      29.98R
KREMMLING      CLOUDY    59  16  18 SE17G28   29.97R
LEADVILLE      CLOUDY    41  18  39 S7G20     30.06S
MONARCH PASS   CLOUDY    34  14  44 S18G25    30.26F WCI  23
SALIDA         CLOUDY    52  14  22 S6        30.06S
SUNLIGHT       CLOUDY    34  23  64 S8G21     30.06F WCI  27
WILKERSON PASS MOCLDY    34  10  37 S10G17    30.19S WCI  26
$$

COZ069>075-200400-
...SAN LUIS VALLEY/SANGRE DE CRISTO MOUNTAINS...

CITY           SKY/WX    TMP DP  RH WIND       PRES   REMARKS
ALAMOSA        MOCLDY    48  19  31 S15       30.02R
DEL NORTE      FAIR      52  18  26 SE10      30.02S
LA VETA PASS   CLOUDY    36  18  48 SE18G30   30.25S
SAGUACHE       NOT AVBL
$$

COZ035-036-038>040-200400-
...NORTHERN COLORADO FRONT RANGE...

CITY           SKY/WX    TMP DP  RH WIND       PRES   REMARKS
DENVER INTL AP PTCLDY    56  18  22 SE22      29.95F
DMNS CITY PARK NOT AVBL
AURORA         PTCLDY    56  17  21 SE24G30   29.96F
FRONT RANGE AP MOCLDY    57  18  21 SE21G29   29.99S
ERIE MUNI ARPT FAIR      49  21  34 CALM      29.99F
BOULDER MUN AP FAIR      52  27  37 W5        29.95F
CENTENNIAL     PTCLDY    56  18  22 SE24G36   29.96F
BROOMFIELD     NOT AVBL
LOVELAND       PTCLDY    55  20  25 E16       29.96S
LONGMONT       FAIR      49  26  41 W6        29.97S
$$

COZ041-046-047-076>085-087-088-200400-
...PIKES PEAK/PALMER DIVIDE AND SOUTHERN FOOTHILLS...

CITY           SKY/WX    TMP DP  RH WIND       PRES   REMARKS
COLO. SPRINGS  MOCLDY    54  19  25 SE16G31   30.02S
A. F. ACADEMY  PTCLDY    53  15  22 SE21G33   30.01R
SCHRIEVER AFB  NOT AVBL
CHEYENNE MTN   NOT AVBL
ELLICOTT         N/A    N/A N/A N/A SE22G33   30.03S
FALCON         FAIR      50  15  24 SE23      30.06R
FORT CARSON    MOCLDY    57  19  23 SE21      29.98S
LIMON          MOCLDY    51  19  28 SE25G36   30.05F
MONUMENT HILL  PTCLDY    46  18  31 SE21G32   30.05R
CANON CITY     FAIR      59  21  23 NE15      29.91R
WALSENBURG     FAIR      59  21  23 S25G35    30.00R
TRINIDAD       CLOUDY    58  23  26 S17G38    30.06S
$$

COZ042>045-048>051-090-091-200400-
...NORTHEAST COLORADO...

CITY           SKY/WX    TMP DP  RH WIND       PRES   REMARKS
GREELEY ARPT   MOCLDY    54  22  28 E22       29.97R
AKRON          CLOUDY    49  26  41 SE30G38   30.08R
BURLINGTON     CLOUDY    49  26  41 SE22G32   30.14R
WRAY           FAIR      50  27  40 SE18G29   30.15R
YUMA           NOT AVBL
STERLING       NOT AVBL
HOLYOKE        FAIR      54  28  37 SE20G28   30.15R
FORT MORGAN    FAIR      52  20  28 E22G28    30.05R
$$

COZ086-089-092>099-200400-
...SOUTHEAST COLORADO...

CITY           SKY/WX    TMP DP  RH WIND       PRES   REMARKS
PUEBLO         CLOUDY    64  23  21 E20G29    29.93S
LA JUNTA       MOCLDY    62  20  19 SE23      30.04S
LAMAR          MOCLDY    55  21  26 SE14G22   30.10R
SPRINGFIELD      N/A     54  21  27 S28G38    30.13R
$$




USA.gov is the U.S. government's official web portal to all federal, state and local government web resources and services.